DECAYED

NOAA 16 DEB, 41250 (Decayed)

Orbit data source: Space-Track

NOAA 16 DEB, 41250 was space debris in SSO originally from a launch on Thu, 21 Sep 2000 UTC launched from the Air Force Western Test Range (AFWTR). Debris objects in space refer to the collection of defunct objects orbiting the Earth. Examples of debris include non-operational satellites, rocket bodies, and fragments generated from explosions, collisions, or faulty payload assembly.

Loading next visibility...
Identifier
41250, 2000-055FA
Orbit
Decayed
Country
Flag of USUS
Related business
Manufacturer
Unknown
Mission
Decayed spacecraft
Bus & Motor
Unknown
Mass
Unknown
Launch date (UTC)
2000-09-21 (26 years ago)
Launch vehicle
Unknown
Launch site
Air Force Western Test Range (AFWTR)
Object type
Payload
Rocket body
Debris
Shape & HBR
Unknown shape, 0.1 m
Radar Cross Section
Small (<0.1 m²)

Expand to show TLE details & history
Last TLE update: 5 months ago

TLE from 5 months ago
0 NOAA 16 DEB
1 41250U 00055FA  26045.56296821  .01744955  00000-0  21693-1 0  9995
2 41250  98.9701 262.0562 0010059  16.5566 343.6010 15.56862566527758
Epoch: 2026-02-14T13:30Z
TLE epoch observation values (Epoch: 2026-02-14T13:30:40.453Z)
Latitude
-0.00008°
Longitude
-85.19657°
Altitude
393.295 km
Speed
7.678 km/s
True Right ascension
17h 28m 13s
True Declination
0° 00' 00"
Sunlit
Object was in daylight at epoch
Visualization orbit readout
Latitude
Unknown
Longitude
Unknown
Altitude
Unknown
Speed
Unknown
Apparent Right ascension
Unknown
Apparent Declination
Unknown
Sunlit
N/A
Visualization observer readout
Local Sidereal Time
16:14:47
Azimuth
Unknown
Elevation
Unknown
Doppler factor
Unknown
Orbital elements
Apogee altitude
400.547 km
Perigee altitude
386.924 km
Semi-major axis
6,771.873 km
Eccentricity
0.00101
Inclination
98.9701°
RAAN
262.0562°
Arg. of periapsis
16.5566°
True anomaly
343.56842°
Mean anomaly
343.601°
Eccentric anomaly
343.58471°
Mean motion
3.89475 °/min
Orbital period
92.43 mins
BSTAR
0.021693
Loading maneuver chart data...
Computing Atmospheric mass density...
Loading historical data...
Loading historical data...
Loading historical data...
Loading historical data...
Loading historical data...
Loading historical data...
Loading historical data...

Documentation

Showing up to 5 results
|